Regional Weather Roundup
Issued by NWS Midland/Odessa, TX

Skip options and go directly to product.
Home | Oldest Version | Previous Version | Current Version | All | Text Only | Save Text | Print | Product List | Glossary On

Skip product version selection by date and time.   
793
ASUS44 KMAF 272010
RWRMAF
MIDLAND AREA WEATHER ROUNDUP
NATIONAL WEATHER SERVICE MIDLAND TX
200 PM CST THU NOV 27 2014

...IN SOUTHWEST TEXAS AND SOUTHEAST NEW MEXICO...

CITY           SKY/WX    TMP DP  RH WIND       PRES   REMARKS
ALPINE         SUNNY     69  22  17 S7        30.40F
ANDREWS        FAIR      60  31  33 S9        30.37F
ARTESIA        NOT AVBL
BIG SPRING     SUNNY     61  31  31 SE8       30.40F
CARLSBAD       SUNNY     59  32  36 SE9       30.34F
DRYDEN           N/A     63  31  30 E10       30.36F
FORT STOCKTON  SUNNY     66  27  23 E8        30.34F
GUAD PASS      NOT AVBL
HOBBS          SUNNY     57  30  35 SE12      30.37F
MARFA          SUNNY     64  21  19 SE10      30.39F
MIDLAND AIRPK  SUNNY     61  32  33 S9        30.37F
MIDLAND INTL   SUNNY     61  33  35 S15       30.36F
ODESSA         SUNNY     60  30  32 S9        30.37F
PECOS          SUNNY     60  29  31 S7        30.35F
PRESIDIO       FAIR      67  25  21 CALM      30.32F
SEMINOLE       SUNNY     59  31  35 S10       30.38F
SNYDER         SUNNY     56  30  37 S8        30.40F
WINK           SUNNY     61  30  31 S6        30.35F
$$
...OTHER STATIONS IN TEXAS...

CITY           SKY/WX    TMP DP  RH WIND       PRES   REMARKS
ABILENE        SUNNY     58  29  33 SE15G21   30.41F
AMARILLO       SUNNY     56  29  35 S22G29    30.30F
AUSTIN         SUNNY     62  32  32 MISG      30.43F
BROWNSVILLE    MOSUNNY   78  54  43 MISG      30.35F
CORPUS CHRISTI MOSUNNY   70  53  54 E14       30.38F
DALLAS FTW     SUNNY     55  19  24 CALM      30.44F
DEL RIO        SUNNY     68  36  30 SE8       30.37F
EL PASO        SUNNY     63  21  20 CALM      30.33F
HOUSTON INT    SUNNY     65  32  29 VRB5      30.42F
LUBBOCK        MOSUNNY   56  30  37 S13       30.35F
SAN ANGELO     SUNNY     63  30  28 SE8       30.39F
SAN ANTONIO    SUNNY     65  31  28 E8        30.42F
WACO           SUNNY     58  24  27 VRB3      30.45F
WICHITA FALLS  NOT AVBL
$$
...OTHER LOCATIONS IN NEW MEXICO...

CITY           SKY/WX    TMP DP  RH WIND       PRES   REMARKS
ALAMAGORDO     SUNNY     64  23  20 S5        30.35F
ALBUQUERQUE    MOSUNNY   55  23  28 CALM      30.39F
CANNON AFB     SUNNY     61  27  27 SW20      30.29F
CLOVIS         SUNNY     63  30  29 SW18      30.29F
HOLLOMAN AFB   SUNNY     64  24  22 S1        30.33F
ROSWELL        SUNNY     58  31  35 S12       30.32F
RUIDOSO        SUNNY     64  19  17 NE3       30.40F
SANTA FE       SUNNY     57  21  24 N12       30.38F
TRUTH OR CONSE SUNNY     62  21  20 CALM      30.35F
TUCUMCARI      SUNNY     61  28  28 SW14      30.26F
$$

USA.gov is the U.S. government's official web portal to all federal, state and local government web resources and services.